Flag for U.S.A. Weather past 2 weeks in Juneau, Alaska, U.S.A.

33 °F

Low clouds.

Feels Like: 33 °F
Forecast: 20 / 32 °F
Wind: No wind

Location: Juneau International Airport

Current Time: Nov 25, 2015 at 3:25:37 PM

Latest Report: Nov 25, 2015 at 1:53 PM

Visibility: 7 mi

Pressure: 30.43 "Hg

Humidity: 96%

Dew point: 32 °F

Location of JuneauLocation

Historic Weather in Juneau — Graph


Juneau temperature yesterday

Maximum temperature yesterday: 32 °F (at 1:53 PM)
Minimum temperature yesterday: 28 °F (at 12:53 AM)
Average temperature yesterday: 31 °F

Past Weeks' High & Low Weather Summary

High48 °F (Nov 21, 8:53 AM)100% (Nov 23, 8:53 AM)30.53 "Hg (Nov 23, 8:53 AM)
Low20 °F (Nov 23, 7:53 PM)60% (Nov 21, 4:53 PM)28.82 "Hg (Nov 12, 5:53 PM)
Average34 °F89%29.77 "Hg
* Reported Nov 10 1:53 PM — Nov 25 1:53 PM, Juneau, Weather by CustomWeather, © 2015

Note: Actual official high and low records may vary slightly from our data, if they occured in-between our weather recording intervals... More about our weather records


Juneau weather history for previous 24 hours

Time TempWeatherWind HumidityBarometerVisibility
1:53 PM
Wed, Nov 25
33 °FLow clouds.No wind96%30.43 "Hg7 mi
12:57 PM31 °FIce fog.3 mph96%30.46 "Hg1 mi
11:53 AM31 °FIce fog.3 mph96%30.46 "Hg0 mi
10:53 AM32 °FFog.No wind96%30.47 "Hg0 mi
9:59 AM31 °FIce fog.3 mph96%30.48 "Hg0 mi
8:53 AM31 °FCloudy.No wind96%30.48 "Hg8 mi
7:53 AM32 °FOvercast.No wind96%30.50 "Hg8 mi
6:53 AM32 °FLight snow. Mostly cloudy.No wind96%30.50 "Hg7 mi
5:53 AM32 °FLight snow. Mostly cloudy.No wind96%30.51 "Hg10 mi
4:53 AM33 °FLight snow. Mostly cloudy.No wind92%30.50 "Hg9 mi
3:53 AM32 °FLight snow. Mostly cloudy.3 mph96%30.51 "Hg7 mi
2:53 AM31 °FLight snow. Mostly cloudy.No wind96%30.52 "Hg8 mi
1:53 AM32 °FMostly cloudy.No wind92%30.52 "Hg10 mi
12:53 AM32 °FLight snow. Overcast.No wind96%30.52 "Hg10 mi
11:53 PM
Tue, Nov 24
32 °FLight snow. Ice fog.No wind96%30.53 "Hg5 mi
10:53 PM32 °FLight snow. Ice fog.No wind96%30.53 "Hg5 mi
9:53 PM32 °FLight snow. Ice fog.No wind96%30.52 "Hg2 mi
8:53 PM31 °FLight snow. Ice fog.No wind96%30.53 "Hg3 mi
7:53 PM32 °FLight snow. Ice fog.No wind92%30.53 "Hg2 mi
6:53 PM31 °FLight snow. Ice fog.No wind96%30.53 "Hg4 mi
5:53 PM31 °FLight snow. Mostly cloudy.No wind96%30.53 "Hg7 mi
4:53 PM31 °FLight snow. Mostly cloudy.No wind92%30.53 "Hg7 mi
3:53 PM31 °FLight snow. Low clouds.No wind96%30.52 "Hg8 mi
Weather by CustomWeather, © 2015

See weather overviewHow to use our weather pages